www.pogodaiklimat.ru

Погода и климат >> Архив погоды >> Казахстан >> Мартук


ПОГОДА в Мартуке

  • Прогноз погоды в Мартуке
  • Монитор погоды в Мартуке
  • Климат города

АРХИВ ПОГОДЫ в Мартуке

Время (UTC), дата Ветер
(напр.,м/с)
 
Видим.   Явления Облачность Т
(С)
Тd
(С)
f
(%)
Тe
(С)
Тes
(С)
Комфортность P
(гПа)
Po
(гПа)
Тmin
(С)
Tmax
(С)
R
(мм)
R24
(мм)
S
(см)
21 18.06 СЗ 1 50 км ясно +12.0 +8.6 80 +12 +12 1008.9 987.8
00 19.06 СЗ 2 20 км ясно +9.2 +7.1 87 +7 +7 1009.5 988.1
06 19.06 СЗ 3 20 км 8/8 600 м
[Cu med, cong]
+22.6 +10.3 46 +24 +27 комфорт 1009.1 988.7 +9.0
09 19.06 СЗ 4 20 км 6/6 600 м
[Cu med, cong]
+25.6 +4.7 26 +25 +29 комфорт 1008.2 987.9
12 19.06 З 3 20 км 8/8 600 м
[Cu med, cong]
+27.3 +6.3 26 +27 +28 жарко 1007.6 987.5
15 19.06 СЗ 3 20 км 3/3 1000 м
[Cu hum]
+27.2 +4.5 23 +26 +26 жарко 1007.3 987.2 +28.7
18 19.06 СЗ 2 50 км 3/0
[Ac cuf]
+19.2 +12.1 63 +21 +21 комфорт 1008.8 988.1 +28.7
21 19.06 штиль 0 50 км ясно +13.9 +10.3 79 +14 +14 1009.4 988.4
00 20.06 штиль 0 20 км 3/0
[Ac trans]
+11.1 +8.3 83 +10 +10 1009.8 988.5
03 20.06 штиль 0 20 км 3/0
[Ac trans]
+11.1 +8.3 83 +10 +15 1009.8 988.5
06 20.06 СЗ 3 20 км 3/3 1000 м
[Cu hum]
+27.0 +9.1 32 +27 +35 жарко 1008.7 988.6 +10.8
09 20.06 З 4 20 км 6/6 1000 м
[Cu med, cong]
+29.2 +7.9 26 +28 +33 жарко 1007.5 987.5
12 20.06 З 4 20 км 8/8 1000 м
[Cu med, cong]
+30.6 +4.7 19 +29 +30 жарко 1005.9 986.1
15 20.06 З 2 20 км 9/4 1000 м
[Cu hum Ci fib]
+29.8 +4.0 19 +28 +28 жарко 1005.0 985.1 +31.7
18 20.06 ЮЗ 2 50 км 5/0
[Ac cast]
+23.5 +7.9 37 +24 +24 комфорт 1005.1 984.8 +31.7
21 20.06 Ю 1 50 км 4/0
[Ac trans]
+18.6 +7.7 49 +20 +20 1004.8 984.2
00 21.06 штиль 0 20 км 10/0
[Ac und]
+18.0 +10.6 62 +18 +18 1004.8 984.1
06 21.06 СЗ 5 20 км 6/0
[Ac cast]
+23.8 +5.0 30 +24 +28 комфорт 1006.7 986.3 +17.1
09 21.06 З 5 20 км 5/5 1000 м
[Cu hum]
+25.3 +5.8 29 +25 +29 комфорт 1005.7 985.5
12 21.06 СЗ 7 20 км пыльный позёмок {метель} 3/3 1000 м
[Cu hum]
+26.4 -0.9 17 +24 +26 комфорт 1004.9 984.7
15 21.06 З 3 20 км {метель} ясно +25.3 +1.5 21 +24 +25 комфорт 1004.1 983.9 +30.0
18 21.06 штиль 0 50 км {метель} ясно +18.4 +6.7 46 +19 +19 1005.3 984.6 +30.0
21 21.06 З 1 50 км ясно +15.3 +6.6 56 +16 +16 1005.7 984.8
00 22.06 ЮВ 2 20 км 5/0
[Ac trans]
+12.2 +6.3 67 +11 +11 1006.7 985.5
06 22.06 З 6 20 км 3/3 1000 м
[Cu hum]
+22.4 +4.7 32 +23 +27 комфорт 1006.9 986.5 +12.0
09 22.06 З 6 20 км 8/5 1000 м
[Cu hum Ci fib]
+25.0 +3.7 25 +24 +27 комфорт 1006.0 985.8
12 22.06 СЗ 5 20 км 8/8 1000 м
[Cu hum]
+26.6 +4.7 25 +26 +27 жарко 1005.6 985.5
15 22.06 СЗ 4 20 км 3/3 1000 м
[Cu hum]
+24.5 +8.4 36 +25 +25 комфорт 1006.2 986.0 +27.5
18 22.06 СЗ 2 50 км ясно +18.1 +9.9 59 +19 +19 1008.3 987.6 +27.5
21 22.06 штиль 0 50 км ясно +13.9 +9.9 77 +14 +14 1009.2 988.2
00 23.06 штиль 0 20 км 5/0
[Ac trans]
+11.0 +8.4 84 +10 +10 1010.3 989.0
06 23.06 СЗ 4 20 км 8/8 1000 м
[Cu med, cong]
+23.9 +12.0 47 +26 +27 жарко 1010.0 989.6 +10.7
09 23.06 С 5 20 км 8/8 1000 м
[Cu med, cong]
+26.6 +9.2 33 +27 +29 жарко 1009.0 988.8
12 23.06 С 5 20 км 9/9 1000 м
[Cu med, cong]
+29.0 +9.4 29 +29 +29 жарко 1008.0 988.0
15 23.06 СЗ 4 20 км 5/5 1000 м
[Cu med, cong]
+27.6 +8.8 31 +28 +28 жарко 1007.8 987.7 +30.9
18 23.06 С 3 50 км ясно +21.6 +10.1 48 +23 +23 комфорт 1009.3 988.8 +30.9
21 23.06 СЗ 1 50 км ясно +16.5 +9.4 63 +17 +17 1010.3 989.4
00 24.06 СЗ 2 20 км ясно +15.0 +9.6 70 +15 +15 1011.4 990.4
06 24.06 С 3 20 км ясно +25.0 +12.8 47 +27 +39 жарко 1011.4 991.1 +14.8
09 24.06 С 4 20 км ясно +27.8 +7.1 27 +27 +39 жарко 1011.2 991.1
12 24.06 СЗ 5 20 км ясно +29.3 +2.6 18 +27 +32 жарко 1011.0 991.0
15 24.06 С 5 20 км ясно +28.4 +7.6 27 +28 +28 жарко 1011.5 991.4 +30.5
18 24.06 С 3 50 км ясно +22.4 +7.0 37 +23 +23 комфорт 1013.2 992.7 +30.5
21 24.06 СВ 2 50 км ясно +20.2 +8.9 48 +22 +22 комфорт 1013.7 993.0
00 25.06 штиль 0 20 км ясно +14.5 +9.9 74 +14 +14 1015.4 994.3
06 25.06 ЮВ 2 20 км ясно +28.4 +9.4 30 +28 +42 жарко 1016.2 996.0 +14.0
09 25.06 С 2 20 км ясно +30.4 +9.8 28 +30 +47 жарко 1015.5 995.5
12 25.06 С 3 20 км 3/0
[Ci fib]
+32.0 +9.8 25 +31 +38 жарко 1014.4 994.5
15 25.06 СЗ 3 20 км ясно +31.9 +9.1 24 +31 +32 жарко 1013.7 993.8 +33.2
18 25.06 СВ 1 50 км ясно +24.4 +10.6 42 +26 +26 жарко 1014.9 994.5 +33.2

 

Местоположение метеостанции Мартук (Актюбинская область, Казахстан): широта 50.75 долгота 56.53 высота над уровнем моря 178 м.

В архиве по умолчанию представлена погода в Мартуке за последнюю неделю. Архивные данные за месяц целиком и за предыдущие месяцы, начиная с января 2011 года, Вы можете получить, выбрав интересующий диапазон дат из раскрывающегося списка и нажав кнопку "Ввод!".


*Определитесь, кто Вы:
робот инопланетянин человек

Внимание! Время в таблицах - всемирное. Для получения местного времени необходимо прибавить поправку, которая в Мартуке равна 5 ч.

Смотрите также архив погоды в соседних городах и на ближайших метеорологических станциях:

Погода в Родниковке (Актюбинская область, Казахстан) (47 км)
Погода в Актобе (Актюбинская область, Казахстан) (68 км)
Погода в Акбулаке (Оренбургская область, Россия) (70 км)
Погода в Новокуйбышевске (Самарская область, Россия) (70 км)
Погода в Беляевке (Оренбургская область, Россия) (75 км)
Погода в Каралаатсае (Актюбинская область, Казахстан) (88 км)
Погода в Новоалексеевке (Костанайская область, Казахстан) (91 км)
Погода в Кос-Истеке (Актюбинская область, Казахстан) (96 км)
Погода в Кувандыке (Оренбургская область, Россия) (99 км)
Погода в Соль-Илецк (Оренбургская область, Россия) (115 км)

Пояснения к столбцам:

Ветер - указаны скорость ветра в м/с - средняя за 10 мин, порывы в срок и между сроками (в фигурных скобках) и направление, откуда дует ветер: С - северный, СВ - северо-восточный, В - восточный, ЮВ - юго-восточный, Ю - южный, ЮЗ - юго-западный, З - западный, СЗ - северо-западный.
Видимость - горизонтальная дальность видимости в метрах или километрах. При видимости от 1 до 10 км при отсутствии осадков обычно наблюдается дымка, при ухудшении видимости до 1 км и менее - туман. В сухую погоду видимость может ухудшаться дымом, пылью или мглою.
Явления - указаны атмосферные явления, наблюдавшиеся в срок или в последний час перед сроком; фигурными скобками обозначены явления, наблюдавшиеся между сроками (за 1-3 часа до срока); квадратными скобками обозначены град или гололедные отложения с указанием их диаметра в мм.
Облачность - указаны через наклонную черту общая и нижняя облачность в баллах и высота нижней границы облаков в метрах; квадратными скобками обозначены формы облаков: Ci - перистые, Cs - перисто-слоистые, Cc - перисто-кучевые, Ac - высококучевые, As - высокослоистые, Sc - слоисто-кучевые, Ns - слоисто-дождевые, Cu - кучевые, Cb - кучево-дождевые. Подробнее классификацию облаков см. в Атласе облаков (PDF).
T - Температура воздуха - температура, измеренная на высоте 2 м над землей.
Td - Температура точки росы - температура, при понижении до которой содержащийся в воздухе водяной пар достигнет насыщения.
f - Относительная влажность воздуха - влажноcть воздуха, измеренная на высоте 2 м над землей.
Te - Эффективная температура - температура, которую ощущает одетый по сезону человек в тени. Характеристика душности погоды. При расчете учитывается влияние влажности воздуха и скорости ветра на теплоощущения человека.
Tes - Эффективная температура на солнце - температура, которую ощущает человек, с поправкой на солнечный нагрев. Характеристика знойности погоды. Зависит от высоты солнца над горизонтом, облачности и скорости ветра. Ночью, в пасмурную погоду, а также при ветре 12 м/с и более поправка равна нулю.
P - Атмосферное давление - приведенное к уровню моря атмосферное давление.
Po - Атмосферное давление - измеренное на уровне метеостанции атмосферное давление.
Tmin - Минимальная температура - минимум температуры воздуха на высоте 2 м над землей.
Tmax - Максимальная температура - максимум температуры воздуха на высоте 2 м над землей.
R - Количество осадков - Количество выпавших осадков за период времени, мм. При наведении курсора мыши на число - период времени, за который выпало указанное количество осадков.
R24 - Количество осадков - Количество выпавших осадков за 24 часа, мм.
S - Снежный покров - Высота снежного покрова, см. При наведении курсора мыши на число - состояние снежного покрова и степень покрытия местности в баллах.